Wind_Speed
8 8 5 4 6 6 6 6 1 4 6 8 6 5 18 17 8 8 8 11 10 9 10 8 6 4 3 3 3 4 4 5 5 5 5 5 6 7 8 7 7 7 7 8 10 10 8 7 5
7 6 3 5 7 8 7 5 4 7 12 14 14 14 14 14 13 7 6 10 4 7 7 7 6 6 5 4 4 4 5 6 7 7 7 7 7 8 9 8 8 8 8 9 10 11 9 8 7
5 2 7 4 4 7 7 3 2 8 9 4 7 10 7 6 8 5 8 9 3 6 6 7 6 4 5 6 5 5 6 7 7 9 9 9 9 10 10 9 9 9 8 10 10 11 10 8 8
3 4 4 8 4 5 2 2 4 9 9 4 12 12 9 6 4 7 12 8 6 8 5 3 1 2 3 4 6 7 8 8 10 11 11 11 11 11 11 10 10 10 10 10 11 12 11 10 9
3 5 5 6 5 5 4 3 8 8 7 12 9 10 8 6 9 11 10 7 8 8 7 5 5 3 3 5 7 7 8 9 11 13 13 13 13 13 12 12 12 12 11 12 13 13 12 11 11
6 4 6 9 6 5 4 5 8 6 12 10 13 13 7 8 7 9 10 7 6 5 5 4 3 3 4 6 7 8 10 10 12 13 14 15 14 15 15 14 14 14 13 13 14 14 14 14 12
8 5 4 4 8 7 6 4 6 9 11 8 11 7 11 7 6 9 9 7 4 1 1 3 4 5 7 7 7 7 8 11 11 14 16 18 18 17 17 18 17 16 16 15 16 16 16 16 15
4 4 6 6 9 6 6 5 6 7 8 7 3 5 11 7 7 7 8 7 5 4 3 1 2 3 4 6 8 9 9 8 12 14 16 18 19 19 19 20 21 20 19 18 18 18 18 18 17
4 6 6 7 9 8 8 7 4 4 9 6 6 6 10 8 7 5 5 4 4 3 2 2 3 4 5 6 7 7 9 11 10 12 15 20 18 20 21 22 23 22 22 22 21 21 20 21 20
5 7 2 3 3 7 6 4 6 6 10 9 10 10 9 8 6 4 3 2 3 4 4 5 5 5 5 5 6 7 9 12 15 15 14 16 19 22 24 25 25 25 25 25 25 23 24 23 20
2 5 2 4 2 2 5 5 3 6 6 4 8 8 6 6 4 4 2 3 5 7 8 8 9 9 9 10 10 11 12 13 16 19 23 23 21 23 23 23 23 28 28 28 28 28 28 23 21
7 2 2 2 1 2 3 3 5 3 6 8 12 9 8 5 4 3 3 5 5 7 9 10 12 12 13 14 15 17 18 19 21 21 22 25 28 27 26 25 27 25 29 31 28 28 25 25 25
6 2 4 4 5 4 3 2 5 8 9 10 11 10 7 5 4 3 4 6 7 9 12 13 14 15 17 18 19 20 22 25 27 27 26 25 26 30 32 31 29 29 26 30 34 33 34 29 27
2 6 9 7 9 6 8 6 5 8 11 10 9 7 6 4 3 4 4 6 8 10 13 15 17 19 19 21 23 24 27 28 29 30 29 28 27 29 33 33 33 33 32 29 30 36 37 38 35
4 8 7 7 6 7 7 9 10 14 14 12 10 7 5 3 3 4 5 8 9 11 13 16 18 20 21 22 24 25 26 27 29 30 31 29 28 28 30 33 34 33 33 34 33 31 36 36 39
6 5 8 6 3 3 9 11 11 14 15 13 11 8 5 1 2 5 7 9 10 12 14 15 17 19 22 24 25 25 25 28 27 27 28 28 27 27 29 29 31 31 33 31 37 34 37 34 40
6 10 6 5 4 3 12 8 10 14 15 14 12 9 6 3 1 4 6 8 11 13 14 17 18 20 22 24 24 25 25 24 24 26 25 25 28 26 26 30 31 32 33 33 30 39 36 35 39
9 9 9 9 3 8 12 15 9 16 18 18 16 12 9 5 2 4 6 9 10 12 14 15 17 20 22 22 23 22 22 23 24 23 23 26 26 27 26 26 29 29 27 29 29 29 36 37 37
9 11 14 13 5 7 14 16 11 15 17 18 18 15 11 6 2 2 5 8 9 11 13 15 17 20 22 21 23 23 25 25 24 23 24 24 23 24 24 25 29 26 23 24 26 26 28 34 30
10 13 15 14 14 11 17 21 18 14 18 18 17 15 11 6 2 2 4 6 8 10 13 14 17 20 21 22 21 21 23 21 22 20 22 21 22 21 22 22 23 25 26 27 25 26 28 31 38
12 11 13 14 14 16 17 24 23 12 15 13 13 11 9 6 2 1 4 6 8 10 12 15 18 19 21 24 21 21 20 20 20 22 22 23 22 21 21 22 22 24 25 29 29 23 28 27 27
15 11 10 12 12 13 4 16 14 10 15 13 16 13 9 5 1 2 4 5 8 10 12 14 17 18 20 24 23 23 22 23 23 22 22 23 20 20 20 20 20 22 23 24 26 27 27 26 35
7 1 4 9 12 14 16 10 11 3 11 16 18 14 9 5 3 2 4 5 7 9 11 13 15 17 22 24 22 21 22 20 20 21 23 21 19 19 19 18 21 23 26 30 27 24 25 28 31
5 10 14 14 11 13 15 15 15 7 5 1 14 15 11 7 3 3 3 5 6 8 10 12 16 16 21 22 23 25 23 22 22 23 22 23 25 23 22 21 21 20 21 25 28 30 32 30 31
14 12 7 6 8 11 8 8 16 5 4 2 12 15 11 7 4 2 3 4 5 7 10 11 14 16 19 24 27 27 25 22 22 23 23 24 27 25 24 23 22 22 21 23 25 27 28 28 30
4 10 8 9 11 8 3 7 2 6 5 6 12 14 11 7 4 2 2 3 5 6 8 10 13 16 18 22 26 28 28 26 22 22 21 22 23 25 22 21 18 18 18 20 22 24 26 25 27
4 7 7 10 15 11 12 13 6 6 6 6 12 12 10 7 5 2 1 2 6 7 8 10 13 15 17 19 22 25 27 27 24 22 21 22 20 21 22 17 13 12 12 13 14 16 21 19 25
14 6 7 5 7 16 11 11 9 7 10 10 9 11 10 9 7 4 1 2 4 6 7 9 11 15 16 17 18 20 21 23 26 27 27 25 23 23 23 22 19 16 13 11 10 5 3 6 17
6 10 7 5 6 6 12 9 5 3 2 9 13 13 12 9 9 6 3 2 4 5 7 8 9 12 15 17 18 19 19 20 22 26 28 28 26 29 29 27 26 26 20 16 15 11 4 5 10
14 13 12 7 11 8 7 8 1 4 4 17 18 16 12 11 10 7 4 2 3 4 6 8 9 11 13 15 16 17 20 23 25 25 26 28 30 31 33 35 35 35 35 32 32 30 24 26 27
Wind_Direction
307 320 330 274 232 238 156 115 24 134 113 66 78 87 78 48 11 84 68 54 66 88 130 150 154 167 185 213 225 246 235 219 207 203 202 206 202 209 214 213 219 222 219 220 220 220 220 215 233
305 330 298 266 253 211 136 123 105 102 114 115 90 112 89 77 49 71 102 70 130 144 139 140 162 181 181 206 227 231 235 232 224 215 210 212 214 222 226 225 226 225 218 227 224 223 222 226 239
307 319 263 264 251 244 130 122 104 150 150 153 116 82 57 27 16 77 83 79 158 138 142 159 174 186 197 205 213 230 233 234 232 228 221 218 220 224 230 229 232 234 227 225 225 229 231 237 240
326 234 215 247 176 80 58 54 150 160 153 157 119 89 84 43 122 96 83 103 121 109 110 110 190 254 261 250 242 231 224 224 228 233 236 230 227 229 232 230 234 236 234 232 230 234 238 238 238
289 244 227 229 158 117 91 45 177 168 141 149 153 118 93 73 104 109 104 117 110 93 85 74 48 28 336 311 284 263 246 235 229 227 231 240 242 240 236 236 237 237 238 239 241 241 241 242 241
226 264 231 210 162 133 97 77 138 140 134 126 129 120 98 117 104 108 111 109 98 91 80 66 41 353 342 337 321 296 278 261 247 238 235 236 244 249 247 244 241 243 242 241 243 245 247 247 245
281 248 251 239 153 157 110 100 128 137 135 99 141 105 131 123 107 105 102 96 84 47 316 304 306 313 318 316 321 328 317 279 269 260 247 240 240 241 248 249 248 243 244 244 243 244 246 247 248
289 265 203 200 188 132 110 112 111 142 98 113 73 152 152 148 132 109 107 113 113 112 106 82 12 347 332 323 323 319 327 333 283 270 264 262 254 251 247 251 250 249 245 245 245 244 244 246 246
303 245 205 181 192 131 134 148 112 103 124 69 51 98 131 144 124 97 98 99 103 94 62 33 342 327 322 320 322 326 322 325 313 303 293 272 268 259 257 254 251 250 251 248 246 246 244 245 245
275 271 122 84 128 150 131 130 129 168 134 95 96 103 125 135 120 113 91 34 26 23 9 358 348 339 331 319 312 310 311 308 312 312 303 287 283 275 268 265 262 253 246 249 247 245 246 242 241
305 312 95 158 122 198 168 150 131 193 151 79 145 121 109 106 116 88 36 4 354 354 355 345 332 323 314 309 308 309 309 308 308 305 301 295 285 276 272 264 264 259 254 249 247 243 241 238 236
265 268 291 138 353 297 228 161 110 47 101 125 134 136 125 102 85 95 26 2 337 333 334 333 325 319 316 313 310 309 308 308 307 305 299 292 281 276 272 266 260 260 257 250 246 241 234 237 237
259 279 263 254 255 267 275 249 134 118 133 138 135 129 119 104 58 32 16 344 335 331 329 329 324 319 316 314 312 309 307 307 308 307 302 294 284 276 269 265 261 256 254 257 249 246 245 238 236
325 283 272 270 256 239 231 181 188 161 152 145 139 131 119 97 67 22 352 334 329 326 323 322 323 319 316 313 311 311 310 309 308 307 304 299 289 277 271 267 260 256 250 248 257 249 247 249 242
284 285 242 232 249 226 199 210 215 160 170 164 159 149 133 103 41 358 332 335 325 322 319 318 312 313 314 312 311 310 307 307 306 305 304 301 293 283 272 267 264 258 256 247 239 250 250 248 251
253 245 260 141 192 153 208 267 149 173 181 184 181 177 173 192 356 326 325 328 323 320 323 318 314 316 317 316 316 317 316 316 312 309 306 300 293 284 277 270 264 260 256 255 243 241 248 248 248
210 270 250 254 213 203 216 274 154 188 194 197 201 203 204 206 324 328 323 326 329 328 322 321 324 323 322 320 319 318 315 314 311 308 304 300 294 287 280 273 265 262 258 253 254 241 237 247 249
306 269 254 266 171 237 243 256 168 198 203 206 208 208 212 219 265 319 332 329 333 332 332 332 332 332 331 330 327 323 320 315 314 309 306 301 298 294 282 275 271 260 264 261 258 257 245 240 249
280 269 274 281 271 293 266 267 235 202 209 211 211 211 212 209 237 335 336 335 342 343 345 346 345 342 339 336 333 326 323 322 317 311 306 306 303 297 296 290 274 264 264 265 263 257 256 250 244
263 270 270 273 270 284 273 273 269 187 219 214 215 214 212 207 215 339 346 346 350 353 355 355 352 349 348 344 340 330 325 321 318 319 313 305 301 299 300 295 287 274 263 265 265 257 254 253 237
260 273 280 277 298 284 275 274 257 209 219 216 217 214 204 206 213 342 4 359 2 1 3 4 1 359 353 350 344 338 332 328 326 323 321 320 314 308 293 285 285 281 281 275 264 257 258 249 245
279 294 276 281 279 274 272 284 278 177 209 215 211 208 208 203 148 29 15 14 10 7 12 15 9 4 0 358 355 348 341 336 330 329 326 327 321 316 304 288 280 272 271 275 277 272 251 255 244
295 189 282 297 290 288 262 259 278 166 206 213 208 202 202 189 147 64 27 28 21 17 19 19 14 10 8 7 359 354 347 340 335 334 335 333 334 330 325 312 299 290 276 268 264 264 265 248 244
291 260 275 272 272 261 261 250 275 274 244 224 176 191 189 177 149 86 51 43 27 17 16 17 20 14 11 9 7 4 358 351 348 347 345 342 343 343 338 328 314 301 288 281 274 270 264 258 241
243 264 274 263 216 255 294 278 252 137 113 147 174 176 179 169 152 103 54 35 16 9 7 10 14 11 9 14 15 12 8 3 0 355 349 350 352 349 343 336 328 314 296 284 279 262 268 258 245
257 243 238 268 278 318 333 253 283 69 91 127 151 164 168 166 155 117 49 33 17 15 7 10 13 8 11 17 18 19 17 14 9 1 -0 1 355 355 346 339 332 322 311 299 290 270 257 264 246
138 227 262 282 273 273 259 271 206 152 139 149 159 167 170 174 167 150 80 41 38 32 20 17 21 18 16 22 26 25 26 22 17 16 17 6 10 9 9 2 355 343 341 323 296 278 255 246 241
250 295 241 231 258 257 265 271 269 212 204 194 190 185 182 190 182 174 174 40 41 34 34 30 33 30 25 30 34 31 31 33 35 30 30 23 24 30 26 27 23 23 20 353 320 279 261 248 216
186 219 227 261 247 279 287 279 46 112 127 188 199 198 193 194 199 192 169 76 53 50 55 52 50 44 37 36 41 42 38 42 43 45 45 41 44 48 43 41 46 44 39 55 76 78 71 93 126
264 262 256 247 263 250 292 281 120 189 210 168 183 188 198 204 200 198 171 124 84 77 74 68 58 53 49 45 46 51 51 52 50 48 45 48 47 48 57 59 60 60 62 64 67 72 86 81 80
Height
1515 1515 1515 1515 1509 1498 1502 1510 1509 1507 1510 1515 1514 1511 1517 1520 1521 1532 1541 1540 1539 1538 1535 1534 1535 1536 1536 1537 1538 1538 1539 1539 1538 1538 1538 1537 1536 1537 1537 1536 1537 1537 1537 1538 1538 1538 1538 1538 1539
1516 1515 1515 1512 1502 1498 1501 1509 1508 1509 1515 1517 1518 1519 1520 1528 1530 1536 1537 1537 1538 1537 1536 1535 1536 1535 1534 1535 1536 1537 1537 1538 1538 1538 1538 1538 1537 1538 1538 1537 1537 1537 1536 1538 1538 1538 1538 1538 1538
1516 1516 1514 1503 1497 1492 1498 1508 1510 1513 1516 1516 1518 1523 1527 1535 1536 1536 1537 1537 1538 1537 1537 1535 1535 1535 1534 1534 1534 1535 1536 1536 1537 1538 1538 1538 1537 1537 1538 1536 1537 1537 1536 1537 1537 1538 1537 1537 1537
1517 1517 1514 1503 1498 1505 1506 1509 1513 1513 1516 1517 1518 1526 1533 1536 1536 1536 1536 1538 1539 1538 1538 1538 1536 1536 1535 1535 1534 1533 1533 1534 1535 1536 1537 1537 1536 1535 1537 1535 1536 1536 1536 1536 1536 1537 1536 1536 1536
1517 1514 1503 1501 1504 1507 1509 1512 1512 1511 1515 1517 1519 1527 1535 1537 1536 1536 1537 1538 1537 1537 1537 1536 1537 1536 1535 1534 1534 1533 1532 1532 1533 1533 1535 1535 1535 1535 1534 1534 1534 1535 1534 1535 1535 1535 1534 1534 1534
1513 1512 1503 1500 1502 1508 1511 1515 1514 1514 1518 1521 1522 1526 1537 1539 1538 1536 1536 1537 1537 1537 1537 1536 1536 1536 1535 1534 1534 1533 1532 1532 1532 1532 1532 1532 1532 1533 1533 1533 1533 1533 1532 1533 1534 1533 1533 1533 1532
1512 1505 1498 1497 1504 1509 1511 1516 1515 1516 1518 1522 1525 1526 1538 1540 1538 1536 1535 1536 1536 1536 1537 1536 1536 1535 1535 1534 1533 1532 1531 1530 1530 1530 1529 1528 1529 1529 1530 1529 1530 1529 1530 1531 1531 1531 1531 1530 1531
1516 1509 1506 1500 1506 1507 1513 1517 1520 1518 1524 1527 1528 1526 1536 1538 1537 1537 1537 1537 1537 1537 1536 1535 1535 1534 1534 1533 1532 1531 1530 1529 1529 1528 1528 1527 1526 1526 1526 1526 1526 1527 1527 1527 1528 1528 1528 1528 1528
1518 1506 1500 1502 1504 1507 1514 1514 1521 1523 1524 1528 1531 1532 1536 1536 1537 1539 1537 1537 1536 1536 1536 1535 1535 1534 1534 1532 1531 1530 1529 1527 1527 1526 1524 1524 1523 1522 1521 1521 1521 1522 1522 1523 1524 1525 1525 1525 1525
1516 1505 1502 1506 1508 1510 1514 1515 1519 1522 1525 1530 1533 1534 1534 1535 1537 1538 1536 1536 1535 1535 1534 1534 1534 1534 1533 1531 1530 1528 1527 1525 1523 1522 1522 1521 1519 1519 1518 1517 1517 1517 1517 1518 1519 1521 1521 1521 1521
1517 1508 1513 1515 1514 1515 1514 1515 1519 1519 1521 1531 1532 1536 1538 1538 1537 1536 1536 1534 1533 1533 1532 1531 1531 1531 1530 1529 1528 1526 1525 1523 1522 1520 1518 1517 1516 1514 1514 1513 1512 1512 1513 1513 1514 1515 1514 1516 1517
1518 1518 1517 1516 1518 1516 1515 1518 1521 1523 1529 1531 1531 1534 1535 1537 1536 1533 1535 1534 1533 1532 1531 1530 1529 1529 1528 1526 1524 1523 1521 1519 1518 1516 1514 1512 1510 1509 1508 1506 1506 1506 1506 1507 1508 1508 1509 1511 1512
1520 1520 1520 1519 1519 1518 1519 1518 1521 1528 1530 1532 1531 1532 1534 1535 1536 1534 1533 1533 1532 1530 1529 1528 1527 1526 1524 1523 1520 1518 1516 1514 1511 1509 1507 1506 1504 1502 1500 1500 1499 1499 1501 1500 1500 1501 1501 1503 1506
1522 1520 1518 1518 1516 1517 1517 1519 1522 1530 1530 1532 1533 1534 1533 1534 1534 1534 1532 1532 1530 1529 1528 1526 1524 1522 1520 1518 1516 1513 1510 1507 1505 1502 1499 1498 1496 1495 1493 1492 1492 1492 1492 1493 1493 1493 1493 1494 1497
1523 1518 1512 1511 1513 1513 1514 1516 1515 1525 1529 1530 1531 1532 1533 1533 1533 1532 1530 1530 1528 1527 1525 1523 1522 1519 1516 1514 1511 1508 1505 1502 1499 1495 1492 1490 1488 1486 1485 1483 1482 1483 1484 1483 1484 1485 1485 1487 1488
1517 1515 1505 1508 1510 1512 1513 1498 1515 1524 1527 1529 1530 1531 1531 1531 1530 1529 1529 1529 1527 1525 1523 1521 1519 1516 1512 1509 1505 1501 1498 1494 1491 1487 1484 1482 1479 1477 1475 1474 1473 1474 1473 1474 1475 1476 1477 1477 1479
1513 1503 1505 1504 1507 1507 1508 1496 1515 1521 1523 1526 1529 1530 1530 1530 1530 1528 1526 1525 1524 1523 1521 1519 1515 1512 1508 1505 1501 1497 1493 1489 1485 1481 1478 1474 1470 1469 1466 1463 1464 1464 1463 1464 1465 1467 1468 1470 1470
1502 1510 1506 1505 1502 1506 1499 1499 1511 1518 1518 1519 1523 1526 1528 1529 1529 1527 1525 1523 1522 1520 1518 1515 1512 1508 1504 1500 1496 1493 1488 1484 1480 1476 1471 1467 1463 1459 1458 1455 1454 1454 1454 1455 1457 1458 1460 1462 1462
1513 1512 1509 1504 1503 1510 1502 1496 1494 1512 1516 1516 1518 1522 1525 1527 1527 1525 1523 1522 1520 1518 1515 1512 1509 1505 1501 1497 1492 1488 1482 1477 1474 1470 1465 1460 1458 1453 1451 1449 1447 1446 1446 1449 1451 1452 1453 1452 1456
1515 1512 1507 1503 1505 1506 1500 1491 1490 1502 1509 1511 1515 1519 1524 1525 1525 1524 1522 1520 1518 1516 1512 1510 1506 1502 1498 1493 1489 1485 1479 1474 1469 1465 1461 1457 1450 1447 1446 1445 1443 1441 1438 1438 1441 1445 1446 1445 1448
1510 1511 1508 1509 1505 1502 1498 1487 1488 1496 1507 1510 1514 1518 1522 1524 1525 1523 1521 1519 1517 1514 1510 1507 1504 1500 1496 1491 1486 1482 1478 1473 1467 1461 1455 1450 1445 1442 1441 1438 1436 1434 1432 1430 1432 1436 1438 1437 1440
1512 1506 1513 1511 1507 1500 1494 1484 1476 1480 1498 1508 1512 1517 1520 1522 1521 1520 1519 1517 1516 1514 1510 1506 1503 1500 1494 1488 1483 1479 1475 1468 1464 1457 1452 1446 1442 1438 1435 1431 1428 1425 1423 1423 1425 1426 1428 1431 1430
1509 1512 1511 1509 1505 1499 1493 1498 1470 1482 1489 1494 1503 1513 1518 1520 1519 1519 1517 1516 1515 1513 1510 1507 1503 1499 1493 1487 1483 1478 1473 1467 1461 1455 1449 1444 1438 1434 1429 1425 1422 1419 1417 1416 1417 1418 1419 1422 1425
1511 1510 1505 1501 1501 1498 1485 1485 1466 1470 1480 1486 1498 1510 1516 1518 1517 1516 1515 1514 1514 1513 1510 1507 1502 1499 1493 1489 1482 1476 1470 1465 1458 1452 1447 1442 1436 1430 1425 1420 1416 1412 1410 1409 1409 1410 1410 1411 1414
1507 1509 1506 1500 1495 1490 1471 1481 1470 1479 1489 1493 1499 1508 1514 1515 1517 1516 1515 1513 1511 1511 1509 1506 1502 1499 1493 1487 1481 1475 1471 1465 1458 1452 1447 1440 1432 1426 1420 1416 1412 1409 1405 1403 1400 1400 1401 1402 1403
1501 1499 1503 1501 1484 1481 1480 1481 1468 1490 1496 1498 1501 1506 1511 1513 1513 1513 1512 1510 1509 1508 1507 1505 1502 1498 1492 1487 1482 1478 1471 1464 1459 1454 1448 1441 1434 1428 1421 1414 1410 1405 1400 1397 1393 1392 1392 1391 1393
1498 1501 1494 1499 1495 1497 1480 1474 1476 1492 1498 1502 1505 1507 1509 1511 1511 1512 1511 1509 1508 1507 1506 1503 1501 1497 1493 1488 1483 1479 1472 1467 1462 1456 1449 1443 1437 1430 1423 1416 1410 1403 1397 1391 1387 1384 1383 1384 1386
1497 1493 1500 1500 1501 1486 1471 1466 1468 1477 1490 1502 1506 1506 1508 1509 1509 1510 1510 1508 1507 1506 1504 1502 1500 1497 1494 1489 1485 1480 1476 1472 1466 1460 1451 1446 1439 1431 1423 1416 1410 1402 1395 1388 1383 1379 1377 1378 1379
1492 1493 1494 1497 1495 1489 1481 1467 1475 1486 1488 1495 1502 1505 1507 1508 1508 1509 1508 1507 1506 1505 1504 1502 1500 1497 1494 1491 1487 1482 1479 1474 1468 1463 1456 1450 1443 1433 1425 1419 1411 1402 1392 1390 1385 1375 1375 1380 1376
1487 1485 1485 1494 1488 1487 1489 1477 1485 1488 1485 1484 1492 1500 1504 1506 1507 1508 1506 1506 1506 1505 1504 1501 1500 1498 1495 1493 1489 1486 1481 1476 1471 1466 1460 1455 1448 1440 1429 1424 1414 1407 1403 1397 1383 1382 1378 1381 1378